RH
39 38 38 37 38 40 41 40 37 36 35 35 35 36 37 38 39 37 38 45 48 46 47 53 55 55 60 63 62 60 58 57 55 53 52 51 52 52 53 54 55 56 56 56 53 45 33 26 23 18 15 14
46 47 46 44 43 44 47 48 45 41 38 36 34 34 38 40 41 41 39 41 43 43 44 49 52 52 56 60 60 59 58 57 55 54 54 53 53 53 54 55 56 57 57 57 55 48 37 28 25 22 19 16
50 51 51 50 48 48 50 52 49 45 43 40 37 35 35 36 37 38 39 40 41 42 44 47 50 51 54 57 58 59 59 57 57 57 56 55 55 54 55 56 56 58 58 58 57 51 42 32 28 26 23 20
51 49 47 47 49 49 49 49 46 44 43 44 45 45 45 42 39 37 37 39 42 46 49 52 52 53 55 56 57 59 60 60 60 60 58 57 56 56 56 56 56 56 58 58 58 54 47 38 32 29 26 24
45 41 39 41 44 45 43 41 40 38 37 38 41 45 49 48 43 39 39 41 47 52 56 58 56 55 57 58 58 60 62 63 63 62 59 59 57 57 57 56 57 56 57 58 58 55 49 42 36 32 30 27
34 34 33 35 37 38 36 35 34 34 33 34 35 37 40 41 41 43 47 50 54 58 61 61 60 59 59 60 62 64 65 65 64 63 61 61 58 58 58 57 57 56 57 59 58 55 50 44 39 35 33 31
33 33 32 33 35 35 34 34 33 33 33 33 35 37 36 37 43 48 53 57 59 62 64 66 65 63 64 66 68 69 69 69 67 66 64 62 60 59 58 57 57 57 57 58 57 55 51 45 40 38 36 34
40 38 35 35 35 35 34 33 34 34 34 34 35 37 37 39 44 46 52 61 65 67 68 70 70 69 70 71 72 73 73 73 70 69 67 64 62 60 59 58 57 58 58 57 57 55 52 46 42 40 38 36
39 37 35 35 34 32 31 32 32 32 33 33 33 35 35 38 41 44 50 58 64 68 72 73 75 76 76 78 79 78 77 76 74 72 70 67 64 63 61 60 59 60 59 58 57 55 52 47 43 41 39 38
33 32 31 31 30 29 28 28 29 28 29 29 30 29 29 31 34 38 44 52 60 65 68 72 78 81 82 85 85 82 81 79 77 74 72 70 67 65 63 63 62 61 60 59 57 55 52 48 44 43 42 41
31 30 31 31 30 30 29 29 29 28 28 28 28 27 26 28 30 32 35 43 54 60 63 72 81 86 86 87 86 83 81 80 78 75 73 71 68 67 67 66 65 62 61 59 58 56 52 49 46 45 44 43
34 33 35 36 34 32 33 33 33 32 32 32 31 30 29 29 30 31 33 37 48 57 63 72 80 84 86 86 86 83 80 79 78 75 74 73 72 71 70 69 67 65 63 61 59 57 55 52 50 48 47 46
35 36 37 38 37 35 36 36 36 36 36 36 36 35 34 32 32 31 33 39 46 52 58 66 72 76 81 83 84 83 80 80 79 77 76 76 76 75 74 72 70 69 66 64 61 59 58 56 53 51 50 49
37 37 39 40 39 39 39 39 40 39 38 39 38 38 37 35 34 32 32 38 44 50 58 65 68 73 80 82 84 83 81 81 81 80 80 81 81 79 77 74 72 70 67 66 64 62 61 59 57 55 54 53
39 39 40 41 41 41 42 42 42 42 41 41 40 39 38 36 35 34 33 36 42 50 62 69 73 78 81 80 83 85 86 88 89 86 86 86 84 82 80 76 74 72 70 68 66 66 64 62 61 59 57 56
40 41 42 43 43 44 44 44 44 44 43 42 41 39 38 36 35 35 35 35 38 43 52 60 65 69 70 70 78 83 81 80 79 77 78 84 85 85 84 81 79 77 75 73 71 70 69 67 65 64 62 60
42 43 44 45 45 45 45 45 45 44 43 42 40 39 36 35 35 35 36 36 37 38 40 43 45 51 58 60 61 60 55 52 51 51 55 67 73 76 83 88 87 86 84 81 78 76 74 72 69 67 66 64
44 45 46 46 46 46 46 45 45 43 42 40 39 37 36 35 35 35 36 36 36 35 34 34 34 38 44 44 40 40 41 40 38 37 38 44 49 54 67 80 85 90 93 91 87 82 78 76 73 72 70 68
46 47 47 47 47 47 46 45 43 41 40 38 37 36 36 36 36 35 35 34 33 33 33 33 33 33 35 35 35 39 42 41 39 38 39 40 40 42 49 58 66 78 88 92 92 89 85 80 76 73 70 69
47 47 47 47 47 46 45 43 41 40 38 37 36 36 36 36 35 33 32 33 33 34 35 34 34 34 34 34 35 40 42 45 46 46 49 49 45 46 48 49 54 62 70 78 87 91 93 93 88 81 76 72
48 48 48 48 47 46 44 42 39 38 36 36 36 36 35 34 33 33 33 34 34 33 31 30 29 28 29 29 30 33 36 43 48 48 56 62 59 60 61 59 59 59 59 68 79 84 86 89 90 92 92 90
49 49 49 48 47 46 43 41 38 37 36 36 37 36 36 35 34 34 34 33 31 31 30 30 30 28 28 27 26 27 28 34 39 41 48 55 56 57 57 59 60 56 56 67 81 87 86 79 74 75 85 95
50 49 49 49 47 45 41 39 38 37 38 38 38 37 36 35 34 34 34 34 34 36 37 36 35 34 32 30 29 28 28 29 31 33 35 39 43 45 48 55 55 52 56 70 83 93 98 90 78 69 72 84
50 49 49 47 45 42 40 39 39 39 39 38 38 37 36 35 35 36 36 37 39 40 40 40 38 38 37 35 32 31 30 30 30 32 33 35 38 42 50 54 50 51 60 68 73 83 94 96 90 83 80 85
47 48 47 45 43 41 41 40 40 40 39 38 37 36 36 36 36 37 38 39 40 41 41 41 40 40 39 37 35 34 33 32 32 32 33 34 35 39 49 51 49 57 63 63 62 70 87 97 97 93 91 91
47 48 47 45 44 43 42 42 41 41 40 40 38 38 37 37 37 38 38 39 39 41 41 41 41 41 41 38 37 36 35 35 33 32 32 34 36 37 43 48 50 56 61 62 62 65 76 89 96 98 94 88
50 51 51 50 48 47 46 45 45 44 44 43 42 41 40 39 39 39 39 40 40 41 41 41 42 42 41 40 38 38 37 35 31 29 29 32 36 37 39 44 45 47 54 58 62 67 69 72 79 84 84 81
51 52 53 52 52 52 52 52 53 54 54 53 51 49 47 45 43 42 42 42 42 43 43 43 43 43 43 41 40 39 36 31 26 26 29 32 35 38 38 41 41 41 46 46 48 57 62 61 62 63 64 67
55 57 59 60 62 63 65 66 66 66 65 63 59 56 54 51 47 46 46 46 46 46 46 45 46 45 44 43 42 39 32 25 24 27 31 33 34 37 38 39 40 40 40 38 38 44 46 47 47 45 46 45
66 69 73 77 79 80 80 80 78 75 73 70 65 61 59 57 54 53 53 52 51 49 49 49 48 47 45 44 41 33 26 22 25 28 30 31 31 32 32 32 34 35 35 32 32 34 33 33 33 32 34 32
79 80 83 85 87 87 86 84 83 81 79 76 73 69 67 66 65 64 62 60 57 54 52 51 50 49 47 43 34 25 22 22 24 24 24 24 23 24 26 26 26 29 30 29 29 31 31 30 30 29 30 30
Wind_Speed
16 16 16 16 16 15 16 16 17 18 19 21 22 22 22 22 23 24 24 24 24 25 24 23 24 24 25 26 26 26 25 25 25 23 21 20 21 21 21 22 22 22 22 22 22 22 21 21 21 20 20 20
17 18 19 19 20 21 20 19 19 20 20 21 23 23 24 24 24 24 25 25 24 25 24 24 25 25 25 26 27 27 26 26 25 23 22 21 21 21 22 22 22 23 23 23 23 22 22 22 22 21 21 21
18 19 21 22 24 25 24 23 22 21 21 22 23 23 24 24 25 25 26 26 25 25 24 25 25 25 26 27 27 27 27 26 25 23 23 22 22 22 22 23 23 23 24 24 24 24 23 23 23 22 22 21
20 21 23 24 25 26 25 24 23 22 22 23 25 25 25 26 26 26 26 26 26 25 24 24 25 24 25 26 27 26 26 25 24 24 23 23 23 23 23 23 23 24 24 24 24 24 24 24 24 23 23 22
22 23 25 26 26 26 25 24 23 23 23 24 25 26 27 28 28 27 27 26 26 25 25 25 24 23 24 25 25 25 25 25 24 24 24 23 24 24 24 24 24 25 25 25 25 25 25 25 24 24 24 24
23 23 24 24 24 25 24 23 23 23 23 23 24 24 25 27 27 26 25 25 25 25 25 25 24 23 22 23 24 24 25 25 25 25 24 24 25 25 25 25 25 26 26 26 25 25 25 24 24 25 25 25
22 22 22 22 23 23 22 21 21 21 21 22 22 24 24 24 24 24 24 25 25 25 25 25 25 23 22 22 23 24 25 25 26 26 26 26 26 26 26 27 26 26 26 26 26 26 25 25 25 26 26 26
23 23 23 22 22 22 21 21 20 20 21 22 22 23 24 23 24 24 24 24 25 25 26 25 25 24 23 22 23 25 26 26 27 27 27 27 28 28 27 27 27 27 27 27 27 27 26 26 26 27 27 27
24 23 23 22 22 21 21 20 20 20 21 22 22 23 24 24 24 24 24 24 25 25 26 25 25 25 24 23 25 27 28 28 28 29 29 29 29 29 28 28 28 28 28 28 28 28 27 27 27 27 27 27
23 22 21 21 20 20 19 19 19 19 20 21 22 24 24 24 25 25 25 25 25 26 26 25 25 25 25 25 26 28 29 30 30 30 30 30 30 30 30 29 29 29 29 29 29 29 28 28 28 28 28 28
22 20 20 19 20 20 19 18 19 20 21 22 23 24 24 25 25 25 25 26 26 27 27 26 26 26 26 27 28 30 30 31 31 31 31 31 31 31 31 31 30 30 30 31 30 30 29 29 29 29 28 28
21 19 19 19 20 20 19 20 20 21 22 23 24 25 25 26 26 26 26 26 27 28 28 27 27 27 28 29 29 31 31 32 32 32 31 32 32 32 32 32 32 32 32 32 31 31 31 30 30 30 30 29
21 20 19 20 21 21 21 21 22 23 24 25 26 26 26 27 28 27 27 27 27 28 28 29 29 29 30 30 30 32 32 32 33 33 32 33 33 34 34 33 33 33 33 32 32 32 32 32 32 31 31 30
22 20 20 22 22 22 22 23 24 24 26 27 28 28 28 28 29 28 28 28 28 29 29 30 30 30 31 31 31 32 32 33 34 35 34 34 35 35 35 34 34 34 34 33 33 33 33 33 33 33 32 32
23 23 23 24 24 23 24 25 26 27 28 30 30 30 30 30 29 29 28 28 28 29 29 30 30 31 31 32 32 33 33 34 35 36 35 35 35 35 35 34 34 34 35 34 34 34 34 34 34 34 33 33
26 26 25 25 24 24 25 27 28 29 31 31 32 32 31 31 29 28 28 28 27 27 28 29 30 31 32 32 32 34 35 35 36 36 36 35 35 35 34 34 34 34 35 35 35 35 35 35 35 35 35 34
28 27 26 25 25 26 28 29 30 31 31 32 32 32 32 31 30 29 28 28 27 26 27 27 29 30 31 32 32 33 34 34 35 35 35 35 35 35 34 35 35 35 35 36 36 36 36 36 36 36 36 35
28 26 26 26 27 28 30 31 31 32 32 32 32 32 32 31 30 28 27 27 27 26 26 26 27 28 29 31 31 32 32 33 34 34 34 34 34 35 35 35 35 35 35 36 37 37 37 37 37 37 37 36
27 28 28 29 29 30 31 32 32 32 32 32 32 31 31 30 29 28 26 25 25 26 27 27 28 28 29 30 30 31 31 33 34 34 35 34 34 35 35 35 35 35 35 36 38 38 38 37 37 37 38 37
29 30 30 31 32 32 32 32 32 32 32 32 31 30 30 29 28 27 26 26 26 27 28 29 29 30 30 30 31 31 32 33 34 35 35 36 36 36 35 35 35 35 36 37 37 37 37 37 37 38 38 38
31 32 33 34 34 34 33 33 33 32 32 31 30 30 29 28 27 27 27 28 28 29 29 29 29 30 30 31 32 32 33 33 34 35 35 36 37 37 37 37 37 37 36 36 35 35 35 36 38 39 39 39
34 35 35 35 35 35 34 33 33 32 31 31 30 29 29 29 28 29 29 30 30 30 30 30 30 31 31 32 32 33 33 34 35 35 36 36 38 39 38 38 38 39 38 36 35 35 36 37 37 39 39 40
36 37 37 36 36 35 34 33 33 32 31 30 30 30 30 30 30 30 31 31 31 31 31 31 32 32 33 33 33 33 34 34 35 36 36 37 37 39 39 38 39 40 39 37 36 37 38 39 37 37 38 38
38 38 38 37 36 35 34 33 32 32 31 31 31 31 31 31 32 32 32 32 33 33 33 33 33 34 35 35 34 34 35 35 35 36 36 37 37 38 38 39 39 39 38 37 38 39 39 40 39 37 36 37
38 37 37 36 35 34 34 33 33 32 32 32 32 32 33 33 34 34 34 35 35 35 35 35 35 36 36 36 36 36 36 36 37 37 37 37 37 37 37 38 39 38 38 38 40 40 39 40 40 39 38 38
36 35 34 34 34 33 33 33 33 33 33 33 34 34 35 36 36 36 36 37 36 36 36 36 37 37 37 38 37 37 38 38 38 38 38 38 38 38 37 38 38 38 38 39 40 40 40 41 41 40 41 41
34 34 33 33 34 34 34 34 34 34 34 35 35 36 37 38 39 39 39 38 38 37 37 37 38 38 38 38 38 38 39 39 39 39 39 38 37 38 37 37 38 39 39 39 39 40 41 41 40 40 40 41
33 33 33 33 34 34 34 34 34 34 35 36 37 38 39 40 41 40 40 39 39 38 38 38 38 39 39 39 39 39 40 40 39 38 38 37 37 36 37 37 38 38 39 39 39 39 40 40 41 40 39 39
32 31 31 31 31 32 32 32 32 33 34 36 38 39 40 41 41 41 40 40 40 39 39 39 39 39 39 39 40 40 40 39 38 37 36 36 36 36 36 36 37 37 38 39 38 38 38 38 39 39 39 38
36 34 32 32 32 32 33 33 34 35 36 37 39 40 41 41 42 41 41 41 41 40 40 39 39 39 39 40 40 40 39 38 36 35 35 34 34 34 34 33 33 34 35 36 35 36 36 37 37 37 37 38
41 39 38 37 37 37 37 37 38 38 39 40 41 41 42 42 42 42 41 41 41 40 39 39 39 39 39 40 39 39 37 35 34 32 32 31 31 31 31 31 31 31 32 33 33 34 35 36 37 38 38 39
Wind_Direction
227 232 237 241 246 252 256 261 264 266 267 269 271 271 271 270 270 271 272 272 273 275 275 272 270 270 268 268 269 270 271 271 271 272 274 276 281 286 289 291 294 297 300 303 305 306 306 304 304 303 302 302
239 244 247 248 250 254 257 259 262 265 268 270 272 273 273 273 272 272 273 273 272 273 274 271 270 269 267 267 267 268 268 269 271 272 273 275 279 282 284 287 291 294 297 300 303 304 304 303 303 302 303 302
245 248 248 247 247 251 255 256 258 261 264 267 269 272 274 274 274 273 272 272 272 270 270 268 267 267 266 265 265 266 266 267 269 270 270 274 277 279 281 285 288 292 295 298 301 302 302 302 302 302 302 300
247 247 247 246 246 249 252 254 257 260 262 265 266 267 270 273 274 273 273 272 271 270 268 265 265 266 266 265 266 266 266 266 267 268 271 275 278 279 281 283 286 289 292 295 298 300 300 300 301 301 300 298
243 244 245 245 247 249 250 252 256 259 261 263 264 264 265 267 269 271 272 272 271 269 268 266 265 266 266 267 267 266 266 266 267 269 273 275 276 277 279 281 284 286 289 292 294 296 298 298 298 298 297 296
238 239 242 243 245 246 247 248 251 254 257 259 261 262 262 263 265 268 269 269 269 268 268 268 268 268 267 268 268 267 266 266 268 270 273 273 274 274 276 279 282 285 288 291 293 294 295 295 295 294 294 294
239 240 241 242 243 244 246 248 249 253 256 258 260 261 262 264 266 268 268 268 268 269 269 269 271 271 270 268 268 267 266 267 269 271 273 273 274 274 276 279 281 284 286 289 291 292 293 292 291 291 292 292
237 239 241 242 243 246 249 252 254 256 258 260 262 263 265 266 267 269 269 270 270 271 271 272 274 275 275 272 270 268 268 269 271 273 274 274 274 275 277 279 281 283 285 287 288 289 290 289 288 289 290 292
234 236 238 241 245 248 252 255 259 261 263 265 266 267 269 270 271 271 272 273 273 274 276 277 277 277 277 274 270 270 270 271 273 274 275 275 275 276 278 279 281 282 283 284 285 286 286 286 286 287 289 291
234 235 238 241 246 251 255 258 262 265 267 269 270 272 273 274 275 276 276 277 277 278 278 279 278 277 276 272 269 270 271 271 273 275 276 276 277 278 279 280 281 282 282 283 284 284 284 285 285 286 287 289
235 236 238 242 249 255 259 263 266 268 270 271 273 275 277 278 278 279 279 279 279 279 280 280 277 275 274 271 270 272 273 273 274 276 277 278 278 278 279 279 281 281 281 282 282 283 284 284 284 285 285 286
236 236 239 244 251 257 262 265 267 269 271 273 276 278 280 281 281 281 281 280 279 279 279 279 277 275 274 273 273 273 274 274 275 277 278 277 278 278 278 279 280 280 280 280 280 281 281 282 282 283 283 284
238 240 242 247 253 257 262 266 269 270 272 275 278 280 281 281 282 282 282 281 279 279 279 278 277 276 275 275 274 273 275 275 276 278 278 277 277 278 278 278 278 278 278 277 278 278 279 280 280 280 281 282
242 245 245 249 256 261 265 270 272 273 274 276 278 279 280 281 282 283 283 282 281 281 280 279 279 278 276 276 275 275 277 276 276 277 278 277 278 278 278 278 277 277 277 276 276 277 277 278 279 279 280 281
244 246 247 252 259 265 270 273 276 277 277 278 278 279 281 282 283 283 283 282 281 280 279 279 279 278 277 277 278 278 278 275 275 277 277 277 278 278 277 276 275 275 275 275 275 276 275 276 277 278 279 280
245 247 251 258 263 269 272 275 277 278 279 279 281 282 284 285 284 284 283 282 281 279 278 277 277 277 278 279 279 278 278 277 277 278 278 279 279 278 277 276 275 273 273 273 274 274 274 274 275 276 278 279
248 253 259 265 270 273 274 275 277 278 280 281 282 284 284 285 286 285 285 285 284 283 280 279 279 278 278 277 277 277 278 279 280 279 279 279 279 279 279 278 276 275 274 273 273 273 272 272 273 275 277 278
255 261 267 271 272 273 273 275 277 279 281 282 283 283 284 285 286 286 287 287 287 286 285 283 281 280 277 277 278 279 279 280 279 279 279 280 280 280 280 278 277 277 276 275 274 273 272 272 273 275 276 277
261 266 269 270 271 271 273 275 277 279 281 281 282 282 282 283 284 285 286 285 286 286 286 285 284 282 281 281 282 281 280 280 280 281 281 281 281 280 279 277 276 276 274 273 273 273 274 274 275 275 275 275
262 264 266 267 268 269 271 273 275 276 277 278 279 279 280 282 282 284 284 284 284 284 284 284 284 284 283 283 282 281 281 281 281 282 282 281 281 280 279 278 277 275 273 271 272 273 275 275 274 273 272 272
260 260 261 263 265 267 268 270 271 272 273 274 276 278 279 281 281 282 283 283 283 283 283 283 283 283 282 282 282 281 280 280 280 280 280 280 280 279 279 278 277 275 273 271 271 271 272 272 272 271 271 271
257 257 258 260 262 264 266 268 269 269 270 272 274 276 278 279 281 281 282 283 283 283 283 283 283 282 282 282 281 281 281 280 280 280 279 279 278 278 278 278 277 276 275 273 273 273 273 272 271 270 270 270
254 255 257 259 261 263 265 265 267 268 269 271 272 274 276 278 280 281 282 282 283 283 283 283 283 282 282 282 282 281 281 281 281 281 281 281 280 280 280 280 278 276 275 274 273 273 274 274 275 274 272 270
252 254 256 258 260 262 264 264 265 267 268 270 272 274 275 277 278 279 280 281 281 282 282 282 282 282 283 283 282 282 282 282 282 282 282 281 281 281 282 281 279 278 277 275 272 270 271 275 278 277 274 272
254 256 257 259 261 262 264 265 266 267 268 270 272 273 274 275 276 277 277 278 278 279 279 280 281 282 282 283 283 283 284 284 284 283 282 281 280 280 280 280 280 280 278 276 273 271 271 273 275 276 275 272
255 257 258 260 261 263 264 266 267 268 269 270 271 272 272 273 274 274 274 275 275 276 277 278 279 280 282 282 282 284 285 285 285 284 283 281 280 279 279 279 279 279 278 276 275 275 273 271 273 275 275 273
252 253 255 257 259 261 263 264 266 268 269 270 271 271 272 272 272 273 273 273 274 275 275 276 278 279 281 281 282 284 286 286 286 285 283 282 281 280 280 279 278 278 278 277 277 276 275 274 274 273 273 274
247 249 251 254 256 259 262 264 266 268 270 271 272 272 272 272 272 272 273 273 274 274 275 276 277 279 280 281 283 285 287 287 286 285 283 282 281 280 280 280 280 279 279 278 278 278 278 278 278 276 274 274
242 244 248 252 256 259 262 264 266 267 269 270 271 271 271 271 271 272 273 273 274 274 274 275 277 280 281 282 284 286 288 288 286 285 283 282 281 281 280 281 281 281 281 281 281 281 281 281 280 280 280 278
242 244 248 253 258 260 262 263 264 266 267 267 268 268 268 268 269 270 271 272 273 273 274 276 278 280 282 284 286 288 288 287 286 285 284 283 283 283 282 282 282 283 284 284 284 285 285 285 285 284 284 284
247 248 252 257 260 262 263 264 264 265 265 265 265 265 265 266 267 269 270 271 272 273 275 277 279 281 284 285 287 288 287 287 286 285 285 284 285 285 286 286 286 286 287 288 289 290 290 290 290 290 290 288